Time,TemperatureF,DewpointF,PressureIn,WindDirection,WindDirectionDegrees,WindSpeedMPH,WindSpeedGustMPH,Humidity,HourlyPrecipIn,Conditions,Clouds,dailyrainin,SoftwareType,DateUTC
2013-01-14 00:00:00,47.2,47.2,30.04,WSW,257,0.0,0.0,100,0.00,,,0.00,VWS V14.01,2013-01-14 05:00:00,
2013-01-14 00:01:00,47.2,47.2,30.04,WSW,257,0.0,0.0,100,0.00,,,0.00,VWS V14.01,2013-01-14 05:01:00,
2013-01-14 00:03:00,47.2,47.2,30.04,WSW,257,0.0,0.0,100,0.00,,,0.00,VWS V14.01,2013-01-14 05:03:00,
2013-01-14 00:08:00,47.5,47.5,30.04,WNW,284,0.0,4.0,100,0.00,,,0.00,VWS V14.01,2013-01-14 05:08:00,
2013-01-14 00:13:00,47.9,47.9,30.04,West,263,0.0,5.0,100,0.00,,,0.00,VWS V14.01,2013-01-14 05:13:00,
2013-01-14 00:18:00,47.8,47.8,30.02,NNE,32,0.0,5.0,100,0.00,,,0.00,VWS V14.01,2013-01-14 05:18:00,
2013-01-14 00:23:00,47.8,47.8,30.02,NNE,32,2.0,5.0,100,0.00,,,0.00,VWS V14.01,2013-01-14 05:23:00,
2013-01-14 00:28:00,48.1,48.1,30.02,WNW,292,2.0,5.0,100,0.00,,,0.00,VWS V14.01,2013-01-14 05:28:00,
2013-01-14 00:33:00,48.2,48.2,30.04,WNW,293,2.0,2.0,100,0.00,,,0.00,VWS V14.01,2013-01-14 05:33:00,
2013-01-14 00:38:00,48.2,48.2,30.04,SSW,196,0.0,5.0,100,0.00,,,0.00,VWS V14.01,2013-01-14 05:38:00,
2013-01-14 00:43:00,48.4,48.4,30.04,SW,225,0.0,5.0,100,0.00,,,0.00,VWS V14.01,2013-01-14 05:43:00,
2013-01-14 00:48:00,48.4,48.4,30.04,WSW,239,0.0,1.0,100,0.00,,,0.00,VWS V14.01,2013-01-14 05:48:00,
2013-01-14 00:53:00,48.4,48.4,30.04,WSW,239,0.0,1.0,100,0.00,,,0.00,VWS V14.01,2013-01-14 05:53:00,
2013-01-14 00:58:00,48.4,48.4,30.04,WSW,239,0.0,1.0,100,0.00,,,0.00,VWS V14.01,2013-01-14 05:58:00,
2013-01-14 01:03:00,48.5,48.5,30.03,West,259,0.0,4.0,100,0.00,,,0.00,VWS V14.01,2013-01-14 06:03:00,
2013-01-14 01:08:00,48.7,48.7,30.03,West,272,1.0,5.0,100,0.00,,,0.00,VWS V14.01,2013-01-14 06:08:00,
2013-01-14 01:13:00,48.5,48.5,30.03,WNW,285,2.0,5.0,100,0.00,,,0.00,VWS V14.01,2013-01-14 06:13:00,
2013-01-14 01:18:00,48.5,48.5,30.04,NNW,329,0.0,5.0,100,0.00,,,0.00,VWS V14.01,2013-01-14 06:18:00,
2013-01-14 01:23:00,48.4,48.4,30.04,NNW,329,0.0,5.0,100,0.00,,,0.00,VWS V14.01,2013-01-14 06:23:00,
2013-01-14 01:28:00,48.2,48.2,30.04,SW,236,2.0,5.0,100,0.00,,,0.00,VWS V14.01,2013-01-14 06:28:00,
2013-01-14 01:33:00,48.1,48.1,30.04,West,263,0.0,4.0,100,0.00,,,0.00,VWS V14.01,2013-01-14 06:33:00,
2013-01-14 01:38:00,48.1,48.1,30.04,West,263,0.0,4.0,100,0.00,,,0.00,VWS V14.01,2013-01-14 06:38:00,
2013-01-14 01:43:00,47.9,47.9,30.04,West,263,0.0,4.0,100,0.00,,,0.00,VWS V14.01,2013-01-14 06:43:00,
2013-01-14 01:48:00,47.8,47.8,30.04,West,263,0.0,0.0,100,0.00,,,0.00,VWS V14.01,2013-01-14 06:48:00,
2013-01-14 01:53:00,47.8,47.8,30.04,West,266,1.0,4.0,100,0.00,,,0.00,VWS V14.01,2013-01-14 06:53:00,
2013-01-14 01:58:00,47.8,47.8,30.04,WNW,285,0.0,5.0,100,0.00,,,0.00,VWS V14.01,2013-01-14 06:58:00,
2013-01-14 02:03:00,47.8,47.8,30.05,WNW,285,0.0,0.0,100,0.00,,,0.00,VWS V14.01,2013-01-14 07:03:00,
2013-01-14 02:08:00,47.9,47.9,30.05,WNW,284,1.0,4.0,100,0.00,,,0.00,VWS V14.01,2013-01-14 07:08:00,
2013-01-14 02:13:00,47.9,47.9,30.05,SW,235,2.0,4.0,100,0.00,,,0.00,VWS V14.01,2013-01-14 07:13:00,
2013-01-14 02:18:00,47.9,47.9,30.04,SW,235,0.0,0.0,100,0.00,,,0.00,VWS V14.01,2013-01-14 07:18:00,
2013-01-14 02:23:00,47.9,47.9,30.04,South,188,7.0,8.0,100,0.01,,,0.01,VWS V14.01,2013-01-14 07:23:00,
2013-01-14 02:28:00,48.2,48.2,30.04,WNW,289,0.0,8.0,100,0.01,,,0.01,VWS V14.01,2013-01-14 07:28:00,
2013-01-14 02:33:00,48.2,48.2,30.05,WNW,288,0.0,2.0,100,0.01,,,0.01,VWS V14.01,2013-01-14 07:33:00,
2013-01-14 02:38:00,48.2,48.2,30.05,WNW,301,0.0,2.0,100,0.01,,,0.01,VWS V14.01,2013-01-14 07:38:00,
2013-01-14 02:43:00,48.2,48.2,30.05,NNW,331,0.0,2.0,100,0.01,,,0.01,VWS V14.01,2013-01-14 07:43:00,
2013-01-14 02:48:00,48.4,48.4,30.04,NNE,28,0.0,1.0,100,0.01,,,0.01,VWS V14.01,2013-01-14 07:48:00,
2013-01-14 02:53:00,48.5,48.5,30.04,NNE,28,0.0,2.0,100,0.01,,,0.01,VWS V14.01,2013-01-14 07:53:00,
2013-01-14 02:58:00,48.5,48.5,30.04,NNE,28,0.0,2.0,100,0.01,,,0.01,VWS V14.01,2013-01-14 07:58:00,
2013-01-14 03:03:00,48.4,48.4,30.06,WNW,294,2.0,4.0,100,0.01,,,0.01,VWS V14.01,2013-01-14 08:03:00,
2013-01-14 03:08:00,48.2,48.2,30.06,WNW,294,0.0,4.0,100,0.01,,,0.01,VWS V14.01,2013-01-14 08:08:00,
2013-01-14 03:13:00,48.2,48.2,30.06,WNW,294,0.0,4.0,100,0.01,,,0.01,VWS V14.01,2013-01-14 08:13:00,
2013-01-14 03:18:00,48.1,48.1,30.05,WNW,294,0.0,0.0,100,0.01,,,0.01,VWS V14.01,2013-01-14 08:18:00,
2013-01-14 03:23:00,47.9,47.9,30.05,WNW,294,0.0,0.0,100,0.01,,,0.01,VWS V14.01,2013-01-14 08:23:00,
2013-01-14 03:28:00,47.9,47.9,30.05,WNW,294,0.0,0.0,100,0.01,,,0.01,VWS V14.01,2013-01-14 08:28:00,
2013-01-14 03:33:00,47.8,47.8,30.06,WNW,294,0.0,0.0,100,0.00,,,0.01,VWS V14.01,2013-01-14 08:33:00,
2013-01-14 03:38:00,47.8,47.8,30.06,WNW,294,0.0,0.0,100,0.00,,,0.01,VWS V14.01,2013-01-14 08:38:00,
2013-01-14 03:43:00,47.8,47.8,30.06,WNW,294,0.0,0.0,100,0.00,,,0.01,VWS V14.01,2013-01-14 08:43:00,
2013-01-14 03:48:00,47.6,47.6,30.07,WNW,294,0.0,0.0,100,0.00,,,0.01,VWS V14.01,2013-01-14 08:48:00,
2013-01-14 03:53:00,47.6,47.6,30.07,WNW,294,0.0,0.0,100,0.00,,,0.01,VWS V14.01,2013-01-14 08:53:00,
2013-01-14 03:58:00,47.6,47.6,30.07,WNW,294,0.0,0.0,100,0.00,,,0.01,VWS V14.01,2013-01-14 08:58:00,
2013-01-14 04:03:00,47.6,47.6,30.06,WNW,294,0.0,0.0,100,0.00,,,0.01,VWS V14.01,2013-01-14 09:03:00,
2013-01-14 04:07:00,47.6,47.6,30.06,WNW,294,0.0,0.0,100,0.00,,,0.01,VWS V14.01,2013-01-14 09:07:00,
2013-01-14 04:12:00,47.5,47.5,30.06,WNW,294,0.0,0.0,100,0.00,,,0.01,VWS V14.01,2013-01-14 09:12:00,
2013-01-14 04:17:00,47.5,47.5,30.04,WNW,294,0.0,0.0,100,0.00,,,0.01,VWS V14.01,2013-01-14 09:17:00,
2013-01-14 04:22:00,47.3,47.3,30.04,WNW,294,0.0,0.0,100,0.00,,,0.01,VWS V14.01,2013-01-14 09:22:00,
2013-01-14 04:27:00,47.3,47.3,30.04,NNW,341,2.0,3.0,100,0.00,,,0.01,VWS V14.01,2013-01-14 09:27:00,
2013-01-14 04:32:00,47.2,47.2,30.01,NNW,341,0.0,0.0,100,0.00,,,0.01,VWS V14.01,2013-01-14 09:32:00,
2013-01-14 04:37:00,47.2,47.2,30.01,NNW,341,0.0,0.0,100,0.00,,,0.01,VWS V14.01,2013-01-14 09:37:00,
2013-01-14 04:42:00,47.0,47.0,30.01,NNW,341,0.0,0.0,100,0.00,,,0.01,VWS V14.01,2013-01-14 09:42:00,
2013-01-14 04:47:00,46.9,46.9,30.00,NNW,341,0.0,0.0,100,0.00,,,0.01,VWS V14.01,2013-01-14 09:47:00,
2013-01-14 04:52:00,47.3,47.3,30.00,SE,145,1.0,6.0,100,0.00,,,0.01,VWS V14.01,2013-01-14 09:52:00,
2013-01-14 04:57:00,48.1,48.1,30.00,NE,43,1.0,8.0,100,0.00,,,0.01,VWS V14.01,2013-01-14 09:57:00,
2013-01-14 05:02:00,48.8,48.8,29.94,SSE,165,11.0,15.0,100,0.00,,,0.01,VWS V14.01,2013-01-14 10:02:00,
2013-01-14 05:07:00,49.6,49.6,29.94,South,169,8.0,19.0,100,0.00,,,0.01,VWS V14.01,2013-01-14 10:07:00,
2013-01-14 05:12:00,49.7,49.7,29.94,WSW,246,5.0,19.0,100,0.00,,,0.01,VWS V14.01,2013-01-14 10:12:00,
2013-01-14 05:17:00,49.9,49.9,29.93,NW,322,1.0,8.0,100,0.00,,,0.01,VWS V14.01,2013-01-14 10:17:00,
2013-01-14 05:22:00,50.3,50.3,29.93,East,96,2.0,13.0,100,0.00,,,0.01,VWS V14.01,2013-01-14 10:22:00,
2013-01-14 05:27:00,50.6,50.6,29.93,ESE,105,4.0,13.0,100,0.00,,,0.01,VWS V14.01,2013-01-14 10:27:00,
2013-01-14 05:32:00,50.9,50.9,29.95,SW,227,3.0,14.0,100,0.00,,,0.01,VWS V14.01,2013-01-14 10:32:00,
2013-01-14 05:37:00,50.0,50.0,29.95,SW,215,6.0,18.0,100,0.00,,,0.01,VWS V14.01,2013-01-14 10:37:00,
2013-01-14 05:42:00,49.7,49.7,29.95,WNW,283,0.0,18.0,100,0.00,,,0.01,VWS V14.01,2013-01-14 10:42:00,
2013-01-14 05:47:00,49.4,49.4,30.01,West,277,0.0,3.0,100,0.00,,,0.01,VWS V14.01,2013-01-14 10:47:00,
2013-01-14 05:52:00,49.1,49.1,30.01,WSW,247,2.0,4.0,100,0.00,,,0.01,VWS V14.01,2013-01-14 10:52:00,
2013-01-14 05:57:00,49.0,49.0,30.01,West,275,2.0,6.0,100,0.00,,,0.01,VWS V14.01,2013-01-14 10:57:00,
2013-01-14 06:02:00,49.0,49.0,30.04,West,279,0.0,0.0,100,0.00,,,0.01,VWS V14.01,2013-01-14 11:02:00,
2013-01-14 06:07:00,48.8,48.8,30.04,WSW,246,2.0,6.0,100,0.00,,,0.01,VWS V14.01,2013-01-14 11:07:00,
2013-01-14 06:12:00,48.8,48.8,30.04,WSW,237,0.0,6.0,100,0.00,,,0.01,VWS V14.01,2013-01-14 11:12:00,
2013-01-14 06:17:00,48.8,48.8,30.03,WSW,237,0.0,0.0,100,0.00,,,0.01,VWS V14.01,2013-01-14 11:17:00,
2013-01-14 06:22:00,48.8,48.8,30.03,WNW,298,0.0,4.0,100,0.00,,,0.01,VWS V14.01,2013-01-14 11:22:00,
2013-01-14 06:27:00,48.8,48.8,30.03,WNW,298,0.0,4.0,100,0.00,,,0.01,VWS V14.01,2013-01-14 11:27:00,
2013-01-14 06:32:00,48.7,48.7,30.03,WNW,298,0.0,0.0,100,0.00,,,0.01,VWS V14.01,2013-01-14 11:32:00,
2013-01-14 06:37:00,48.7,48.7,30.03,WNW,298,1.0,2.0,100,0.00,,,0.01,VWS V14.01,2013-01-14 11:37:00,
2013-01-14 06:42:00,48.5,48.5,30.03,WNW,298,0.0,2.0,100,0.00,,,0.01,VWS V14.01,2013-01-14 11:42:00,
2013-01-14 06:47:00,48.5,48.5,30.04,SW,234,0.0,2.0,100,0.00,,,0.01,VWS V14.01,2013-01-14 11:47:00,
2013-01-14 06:52:00,48.7,48.7,30.04,SW,234,0.0,2.0,100,0.00,,,0.01,VWS V14.01,2013-01-14 11:52:00,
2013-01-14 06:57:00,48.7,48.7,30.04,WSW,240,0.0,2.0,100,0.00,,,0.01,VWS V14.01,2013-01-14 11:57:00,
2013-01-14 07:02:00,48.7,48.7,30.06,WSW,240,5.0,5.0,100,0.00,,,0.01,VWS V14.01,2013-01-14 12:02:00,
2013-01-14 07:07:00,48.7,48.7,30.06,WSW,240,0.0,5.0,100,0.00,,,0.01,VWS V14.01,2013-01-14 12:07:00,
2013-01-14 07:12:00,48.7,48.7,30.06,NNW,328,0.0,5.0,100,0.00,,,0.01,VWS V14.01,2013-01-14 12:12:00,
2013-01-14 07:17:00,48.7,48.7,30.06,NNW,336,0.0,0.0,100,0.00,,,0.01,VWS V14.01,2013-01-14 12:17:00,
2013-01-14 07:22:00,48.7,48.7,30.06,NNW,337,0.0,2.0,100,0.00,,,0.01,VWS V14.01,2013-01-14 12:22:00,
2013-01-14 07:27:00,48.7,48.7,30.06,NNW,337,0.0,2.0,100,0.00,,,0.01,VWS V14.01,2013-01-14 12:27:00,
2013-01-14 07:32:00,48.7,48.7,30.07,NNW,337,0.0,0.0,100,0.00,,,0.01,VWS V14.01,2013-01-14 12:32:00,
2013-01-14 07:37:00,48.7,48.7,30.07,NNW,337,0.0,0.0,100,0.00,,,0.01,VWS V14.01,2013-01-14 12:37:00,
2013-01-14 07:42:00,48.8,48.8,30.07,NNW,337,0.0,0.0,100,0.00,,,0.01,VWS V14.01,2013-01-14 12:42:00,
2013-01-14 07:47:00,48.7,48.7,30.06,NE,52,1.0,5.0,100,0.00,,,0.01,VWS V14.01,2013-01-14 12:47:00,
2013-01-14 07:52:00,48.8,48.8,30.06,WNW,288,1.0,5.0,100,0.00,,,0.01,VWS V14.01,2013-01-14 12:52:00,
2013-01-14 07:57:00,49.4,49.4,30.06,West,273,4.0,8.0,100,0.00,,,0.01,VWS V14.01,2013-01-14 12:57:00,
2013-01-14 08:02:00,49.9,49.9,30.07,West,272,1.0,6.0,100,0.00,,,0.01,VWS V14.01,2013-01-14 13:02:00,
2013-01-14 08:07:00,50.0,50.0,30.07,West,269,0.0,6.0,100,0.00,,,0.01,VWS V14.01,2013-01-14 13:07:00,
2013-01-14 08:12:00,49.9,49.9,30.07,NW,315,2.0,6.0,100,0.00,,,0.01,VWS V14.01,2013-01-14 13:12:00,
2013-01-14 08:17:00,49.6,49.6,30.10,NW,313,1.0,3.0,100,0.00,,,0.01,VWS V14.01,2013-01-14 13:17:00,
2013-01-14 08:22:00,49.4,49.4,30.10,NW,313,2.0,3.0,100,0.00,,,0.01,VWS V14.01,2013-01-14 13:22:00,
2013-01-14 08:27:00,49.1,49.1,30.10,NW,313,0.0,3.0,100,0.00,,,0.01,VWS V14.01,2013-01-14 13:27:00,
2013-01-14 08:32:00,49.1,49.1,30.11,NW,313,0.0,0.0,100,0.00,,,0.01,VWS V14.01,2013-01-14 13:32:00,
2013-01-14 08:37:00,49.1,49.1,30.11,NW,313,0.0,0.0,100,0.00,,,0.01,VWS V14.01,2013-01-14 13:37:00,
2013-01-14 08:42:00,49.1,49.1,30.11,NW,313,0.0,0.0,100,0.00,,,0.01,VWS V14.01,2013-01-14 13:42:00,
2013-01-14 08:47:00,49.1,49.1,30.12,NW,313,0.0,0.0,100,0.00,,,0.01,VWS V14.01,2013-01-14 13:47:00,
2013-01-14 08:52:00,49.3,49.3,30.12,NW,313,0.0,0.0,100,0.00,,,0.01,VWS V14.01,2013-01-14 13:52:00,
2013-01-14 08:57:00,49.3,49.3,30.12,NW,313,0.0,1.0,100,0.00,,,0.01,VWS V14.01,2013-01-14 13:57:00,
2013-01-14 09:02:00,49.3,49.3,30.12,NW,313,0.0,0.0,100,0.00,,,0.01,VWS V14.01,2013-01-14 14:02:00,
2013-01-14 09:07:00,49.6,49.6,30.12,NW,313,0.0,0.0,100,0.00,,,0.01,VWS V14.01,2013-01-14 14:07:00,
2013-01-14 09:12:00,49.7,49.7,30.12,NW,313,0.0,0.0,100,0.00,,,0.01,VWS V14.01,2013-01-14 14:12:00,
2013-01-14 09:17:00,50.0,50.0,30.12,NW,313,0.0,0.0,100,0.00,,,0.01,VWS V14.01,2013-01-14 14:17:00,
2013-01-14 09:22:00,50.2,50.2,30.12,NW,313,0.0,1.0,100,0.00,,,0.01,VWS V14.01,2013-01-14 14:22:00,
2013-01-14 09:27:00,50.4,50.4,30.12,NW,313,0.0,2.0,100,0.00,,,0.01,VWS V14.01,2013-01-14 14:27:00,
2013-01-14 09:32:00,50.6,50.6,30.13,NW,313,1.0,3.0,100,0.00,,,0.01,VWS V14.01,2013-01-14 14:32:00,
2013-01-14 09:37:00,50.7,50.7,30.13,NW,313,2.0,5.0,100,0.00,,,0.01,VWS V14.01,2013-01-14 14:37:00,
2013-01-14 09:42:00,50.9,50.9,30.13,NW,313,1.0,5.0,100,0.00,,,0.01,VWS V14.01,2013-01-14 14:42:00,
2013-01-14 09:47:00,51.0,51.0,30.13,NW,313,4.0,5.0,100,0.00,,,0.01,VWS V14.01,2013-01-14 14:47:00,
2013-01-14 09:52:00,51.2,51.2,30.13,West,271,4.0,5.0,100,0.00,,,0.01,VWS V14.01,2013-01-14 14:52:00,
2013-01-14 09:57:00,51.3,51.3,30.13,West,266,0.0,5.0,100,0.00,,,0.01,VWS V14.01,2013-01-14 14:57:00,
2013-01-14 10:02:00,51.5,51.5,30.13,West,266,0.0,0.0,100,0.00,,,0.01,VWS V14.01,2013-01-14 15:02:00,
2013-01-14 10:07:00,51.6,51.6,30.13,West,266,1.0,1.0,100,0.00,,,0.01,VWS V14.01,2013-01-14 15:07:00,
2013-01-14 10:12:00,51.8,51.8,30.13,West,266,0.0,3.0,100,0.00,,,0.01,VWS V14.01,2013-01-14 15:12:00,
2013-01-14 10:17:00,51.9,51.9,30.13,West,266,0.0,0.0,100,0.00,,,0.01,VWS V14.01,2013-01-14 15:17:00,
2013-01-14 10:22:00,52.1,52.1,30.13,West,266,2.0,5.0,100,0.00,,,0.01,VWS V14.01,2013-01-14 15:22:00,
2013-01-14 10:27:00,52.2,52.2,30.13,WSW,257,4.0,5.0,100,0.00,,,0.01,VWS V14.01,2013-01-14 15:27:00,
2013-01-14 10:32:00,52.2,52.2,30.14,WSW,257,0.0,0.0,100,0.00,,,0.01,VWS V14.01,2013-01-14 15:32:00,
2013-01-14 10:37:00,52.4,52.4,30.14,West,260,1.0,4.0,100,0.00,,,0.01,VWS V14.01,2013-01-14 15:37:00,
2013-01-14 10:42:00,52.4,52.4,30.14,WSW,257,0.0,5.0,100,0.00,,,0.01,VWS V14.01,2013-01-14 15:42:00,
2013-01-14 10:47:00,52.5,52.5,30.15,West,265,1.0,4.0,100,0.00,,,0.01,VWS V14.01,2013-01-14 15:47:00,
2013-01-14 10:52:00,52.5,52.5,30.15,West,265,1.0,4.0,100,0.00,,,0.01,VWS V14.01,2013-01-14 15:52:00,
2013-01-14 10:57:00,52.5,52.5,30.15,West,265,2.0,4.0,100,0.00,,,0.01,VWS V14.01,2013-01-14 15:57:00,
2013-01-14 11:02:00,52.7,52.7,30.16,WSW,240,2.0,6.0,100,0.00,,,0.01,VWS V14.01,2013-01-14 16:02:00,
2013-01-14 11:07:00,53.4,53.4,30.16,WSW,250,2.0,6.0,100,0.00,,,0.01,VWS V14.01,2013-01-14 16:07:00,
2013-01-14 11:12:00,54.0,52.0,30.16,West,259,2.0,7.0,93,0.00,,,0.01,VWS V14.01,2013-01-14 16:12:00,
2013-01-14 11:17:00,54.6,49.5,30.17,West,281,9.0,9.0,83,0.00,,,0.01,VWS V14.01,2013-01-14 16:17:00,
2013-01-14 11:22:00,54.6,48.2,30.17,NW,321,4.0,13.0,79,0.00,,,0.01,VWS V14.01,2013-01-14 16:22:00,
2013-01-14 11:26:00,54.7,48.0,30.17,West,271,4.0,13.0,78,0.00,,,0.01,VWS V14.01,2013-01-14 16:26:00,
2013-01-14 11:31:00,54.9,47.8,30.16,West,260,2.0,6.0,77,0.00,,,0.01,VWS V14.01,2013-01-14 16:31:00,
2013-01-14 11:36:00,55.3,48.2,30.16,West,276,6.0,7.0,77,0.00,,,0.01,VWS V14.01,2013-01-14 16:36:00,
2013-01-14 11:41:00,55.2,47.1,30.16,WNW,283,4.0,10.0,74,0.00,,,0.01,VWS V14.01,2013-01-14 16:41:00,
2013-01-14 11:46:00,55.3,46.8,30.16,West,274,8.0,9.0,73,0.00,,,0.01,VWS V14.01,2013-01-14 16:46:00,
2013-01-14 11:51:00,55.6,47.1,30.16,NW,320,4.0,9.0,73,0.00,,,0.01,VWS V14.01,2013-01-14 16:51:00,
2013-01-14 11:56:00,55.5,45.1,30.16,ENE,72,1.0,10.0,68,0.00,,,0.01,VWS V14.01,2013-01-14 16:56:00,
2013-01-14 12:01:00,55.6,44.8,30.15,ENE,66,1.0,7.0,67,0.00,,,0.01,VWS V14.01,2013-01-14 17:01:00,
2013-01-14 12:06:00,55.3,44.2,30.15,NE,51,11.0,14.0,66,0.00,,,0.01,VWS V14.01,2013-01-14 17:06:00,
2013-01-14 12:11:00,54.7,43.2,30.15,West,274,4.0,14.0,65,0.00,,,0.01,VWS V14.01,2013-01-14 17:11:00,
2013-01-14 12:16:00,55.0,43.1,30.16,NE,50,6.0,14.0,64,0.00,,,0.01,VWS V14.01,2013-01-14 17:16:00,
2013-01-14 12:21:00,55.2,42.4,30.16,NE,39,14.0,18.0,62,0.00,,,0.01,VWS V14.01,2013-01-14 17:21:00,
2013-01-14 12:26:00,54.9,42.6,30.16,East,79,5.0,18.0,63,0.00,,,0.01,VWS V14.01,2013-01-14 17:26:00,
2013-01-14 12:31:00,55.2,43.2,30.15,ENE,64,7.0,11.0,64,0.00,,,0.01,VWS V14.01,2013-01-14 17:31:00,
2013-01-14 12:36:00,54.4,41.7,30.15,NE,55,6.0,13.0,62,0.00,,,0.01,VWS V14.01,2013-01-14 17:36:00,
2013-01-14 12:41:00,54.7,41.5,30.15,WNW,292,0.0,13.0,61,0.00,,,0.01,VWS V14.01,2013-01-14 17:41:00,
2013-01-14 12:46:00,55.0,41.8,30.16,NW,315,7.0,11.0,61,0.00,,,0.01,VWS V14.01,2013-01-14 17:46:00,
2013-01-14 12:51:00,55.3,40.8,30.16,NE,50,2.0,11.0,58,0.00,,,0.01,VWS V14.01,2013-01-14 17:51:00,
2013-01-14 12:56:00,55.0,40.5,30.16,SSE,150,5.0,11.0,58,0.00,,,0.01,VWS V14.01,2013-01-14 17:56:00,
2013-01-14 13:01:00,54.6,40.6,30.15,ENE,65,0.0,6.0,59,0.00,,,0.01,VWS V14.01,2013-01-14 18:01:00,
2013-01-14 13:06:00,54.3,39.8,30.15,East,84,1.0,13.0,58,0.00,,,0.01,VWS V14.01,2013-01-14 18:06:00,
2013-01-14 13:11:00,54.4,38.1,30.15,SW,236,7.0,15.0,54,0.00,,,0.01,VWS V14.01,2013-01-14 18:11:00,
2013-01-14 13:16:00,54.9,38.6,30.16,WNW,290,0.0,4.0,54,0.00,,,0.01,VWS V14.01,2013-01-14 18:16:00,
2013-01-14 13:21:00,54.4,38.6,30.16,NNE,22,0.0,7.0,55,0.00,,,0.01,VWS V14.01,2013-01-14 18:21:00,
2013-01-14 13:26:00,54.4,39.5,30.16,NNE,15,0.0,7.0,57,0.00,,,0.01,VWS V14.01,2013-01-14 18:26:00,
2013-01-14 13:31:00,54.4,39.5,30.16,North,11,4.0,4.0,57,0.00,,,0.01,VWS V14.01,2013-01-14 18:31:00,
2013-01-14 13:36:00,53.7,38.8,30.16,WSW,252,3.0,10.0,57,0.00,,,0.01,VWS V14.01,2013-01-14 18:36:00,
2013-01-14 13:41:00,53.3,39.3,30.16,SW,233,5.0,10.0,59,0.00,,,0.01,VWS V14.01,2013-01-14 18:41:00,
2013-01-14 13:46:00,53.0,39.1,30.16,West,267,4.0,7.0,59,0.00,,,0.01,VWS V14.01,2013-01-14 18:46:00,
2013-01-14 13:51:00,53.0,39.5,30.16,NE,49,3.0,8.0,60,0.00,,,0.01,VWS V14.01,2013-01-14 18:51:00,
2013-01-14 13:56:00,53.1,39.6,30.16,WSW,243,4.0,8.0,60,0.00,,,0.01,VWS V14.01,2013-01-14 18:56:00,
2013-01-14 14:01:00,53.3,39.3,30.17,NNW,329,0.0,9.0,59,0.00,,,0.01,VWS V14.01,2013-01-14 19:01:00,
2013-01-14 14:06:00,53.3,38.5,30.17,NE,49,5.0,12.0,57,0.00,,,0.01,VWS V14.01,2013-01-14 19:06:00,
2013-01-14 14:11:00,53.4,38.1,30.17,WNW,284,9.0,12.0,56,0.00,,,0.01,VWS V14.01,2013-01-14 19:11:00,
2013-01-14 14:16:00,53.3,38.0,30.18,West,261,6.0,6.0,56,0.00,,,0.01,VWS V14.01,2013-01-14 19:16:00,
2013-01-14 14:21:00,53.1,38.3,30.18,North,9,0.0,6.0,57,0.00,,,0.01,VWS V14.01,2013-01-14 19:21:00,
2013-01-14 14:26:00,53.1,37.8,30.18,NNE,32,4.0,6.0,56,0.00,,,0.01,VWS V14.01,2013-01-14 19:26:00,
2013-01-14 14:31:00,53.1,37.8,30.18,West,279,4.0,8.0,56,0.00,,,0.01,VWS V14.01,2013-01-14 19:31:00,
2013-01-14 14:36:00,53.3,38.0,30.18,West,281,0.0,8.0,56,0.00,,,0.01,VWS V14.01,2013-01-14 19:36:00,
2013-01-14 14:41:00,53.4,38.1,30.18,NNE,14,0.0,9.0,56,0.00,,,0.01,VWS V14.01,2013-01-14 19:41:00,
2013-01-14 14:46:00,53.6,37.8,30.19,ENE,70,0.0,0.0,55,0.00,,,0.01,VWS V14.01,2013-01-14 19:46:00,
2013-01-14 14:51:00,53.4,37.2,30.19,NNE,28,6.0,10.0,54,0.00,,,0.01,VWS V14.01,2013-01-14 19:51:00,
2013-01-14 14:56:00,53.3,37.1,30.19,NNE,28,8.0,10.0,54,0.00,,,0.01,VWS V14.01,2013-01-14 19:56:00,
2013-01-14 15:01:00,53.4,36.7,30.19,NNE,22,4.0,10.0,53,0.00,,,0.01,VWS V14.01,2013-01-14 20:01:00,
2013-01-14 15:06:00,53.7,37.0,30.19,NNE,29,7.0,10.0,53,0.00,,,0.01,VWS V14.01,2013-01-14 20:06:00,
2013-01-14 15:11:00,53.7,37.0,30.19,ENE,57,4.0,10.0,53,0.00,,,0.01,VWS V14.01,2013-01-14 20:11:00,
2013-01-14 15:16:00,53.4,36.7,30.19,ENE,68,7.0,9.0,53,0.00,,,0.01,VWS V14.01,2013-01-14 20:16:00,
2013-01-14 15:21:00,53.3,37.1,30.19,NNE,19,0.0,11.0,54,0.00,,,0.01,VWS V14.01,2013-01-14 20:21:00,
2013-01-14 15:26:00,53.1,37.8,30.19,NNW,333,6.0,11.0,56,0.00,,,0.01,VWS V14.01,2013-01-14 20:26:00,
2013-01-14 15:31:00,52.7,37.5,30.21,NNE,24,0.0,6.0,56,0.00,,,0.01,VWS V14.01,2013-01-14 20:31:00,
2013-01-14 15:36:00,52.4,37.6,30.21,NNE,30,11.0,15.0,57,0.00,,,0.01,VWS V14.01,2013-01-14 20:36:00,
2013-01-14 15:41:00,51.9,36.3,30.21,NE,42,6.0,15.0,55,0.00,,,0.01,VWS V14.01,2013-01-14 20:41:00,
2013-01-14 15:46:00,51.6,36.0,30.21,NE,54,2.0,8.0,55,0.00,,,0.01,VWS V14.01,2013-01-14 20:46:00,
2013-01-14 15:51:00,51.5,35.9,30.21,NE,53,4.0,8.0,55,0.00,,,0.01,VWS V14.01,2013-01-14 20:51:00,
2013-01-14 15:56:00,51.2,36.1,30.21,ENE,70,4.0,13.0,56,0.00,,,0.01,VWS V14.01,2013-01-14 20:56:00,
2013-01-14 16:01:00,50.9,36.2,30.21,East,87,4.0,8.0,57,0.00,,,0.01,VWS V14.01,2013-01-14 21:01:00,
2013-01-14 16:06:00,50.7,36.5,30.21,NNE,13,2.0,10.0,58,0.00,,,0.01,VWS V14.01,2013-01-14 21:06:00,
2013-01-14 16:11:00,50.6,36.4,30.21,NNE,19,7.0,10.0,58,0.00,,,0.01,VWS V14.01,2013-01-14 21:11:00,
2013-01-14 16:16:00,50.3,36.5,30.22,NE,38,0.0,11.0,59,0.00,,,0.01,VWS V14.01,2013-01-14 21:16:00,
2013-01-14 16:21:00,50.0,35.8,30.22,NE,51,5.0,11.0,58,0.00,,,0.01,VWS V14.01,2013-01-14 21:21:00,
2013-01-14 16:26:00,49.9,36.2,30.22,East,94,3.0,12.0,59,0.00,,,0.01,VWS V14.01,2013-01-14 21:26:00,
2013-01-14 16:31:00,49.7,36.0,30.21,NE,52,3.0,7.0,59,0.00,,,0.01,VWS V14.01,2013-01-14 21:31:00,
2013-01-14 16:36:00,49.4,35.3,30.21,ENE,67,6.0,8.0,58,0.00,,,0.01,VWS V14.01,2013-01-14 21:36:00,
2013-01-14 16:41:00,49.0,34.9,30.21,NE,44,10.0,11.0,58,0.00,,,0.01,VWS V14.01,2013-01-14 21:41:00,
2013-01-14 16:46:00,48.7,35.0,30.21,NE,49,0.0,0.0,59,0.00,,,0.01,VWS V14.01,2013-01-14 21:46:00,
2013-01-14 16:51:00,48.7,35.0,30.21,NE,49,0.0,0.0,59,0.00,,,0.01,VWS V14.01,2013-01-14 21:51:00,
2013-01-14 16:56:00,48.5,35.3,30.21,NNE,14,3.0,3.0,60,0.00,,,0.01,VWS V14.01,2013-01-14 21:56:00,
2013-01-14 17:01:00,48.1,34.0,30.20,NNE,30,1.0,9.0,58,0.00,,,0.01,VWS V14.01,2013-01-14 22:01:00,
2013-01-14 17:06:00,47.8,33.3,30.20,NNW,346,4.0,11.0,57,0.00,,,0.01,VWS V14.01,2013-01-14 22:06:00,
2013-01-14 17:11:00,47.6,32.7,30.20,North,11,2.0,11.0,56,0.00,,,0.01,VWS V14.01,2013-01-14 22:11:00,
2013-01-14 17:16:00,47.5,32.2,30.23,ENE,68,1.0,5.0,55,0.00,,,0.01,VWS V14.01,2013-01-14 22:16:00,
2013-01-14 17:21:00,47.5,32.6,30.23,NE,48,3.0,6.0,56,0.00,,,0.01,VWS V14.01,2013-01-14 22:21:00,
2013-01-14 17:26:00,47.5,32.6,30.23,ENE,66,3.0,8.0,56,0.00,,,0.01,VWS V14.01,2013-01-14 22:26:00,
2013-01-14 17:31:00,47.3,32.8,30.22,ENE,58,6.0,8.0,57,0.00,,,0.01,VWS V14.01,2013-01-14 22:31:00,
2013-01-14 17:36:00,47.3,32.8,30.22,NE,48,5.0,8.0,57,0.00,,,0.01,VWS V14.01,2013-01-14 22:36:00,
2013-01-14 17:41:00,47.2,32.8,30.22,ENE,65,1.0,8.0,57,0.00,,,0.01,VWS V14.01,2013-01-14 22:41:00,
2013-01-14 17:46:00,47.2,32.8,30.23,East,87,0.0,2.0,57,0.00,,,0.01,VWS V14.01,2013-01-14 22:46:00,
2013-01-14 17:51:00,47.0,32.6,30.23,NE,46,0.0,5.0,57,0.00,,,0.01,VWS V14.01,2013-01-14 22:51:00,
2013-01-14 17:56:00,46.9,32.9,30.23,NE,49,0.0,6.0,58,0.00,,,0.01,VWS V14.01,2013-01-14 22:56:00,
2013-01-14 18:01:00,46.8,32.8,30.23,NNE,23,0.0,7.0,58,0.00,,,0.01,VWS V14.01,2013-01-14 23:01:00,
2013-01-14 18:05:00,46.6,32.6,30.23,ENE,66,0.0,7.0,58,0.00,,,0.01,VWS V14.01,2013-01-14 23:05:00,
2013-01-14 18:10:00,46.6,33.0,30.23,NE,42,5.0,7.0,59,0.00,,,0.01,VWS V14.01,2013-01-14 23:10:00,
2013-01-14 18:15:00,46.5,32.5,30.24,ENE,72,2.0,4.0,58,0.00,,,0.01,VWS V14.01,2013-01-14 23:15:00,
2013-01-14 18:20:00,46.3,32.8,30.24,NE,56,3.0,7.0,59,0.00,,,0.01,VWS V14.01,2013-01-14 23:20:00,
2013-01-14 18:25:00,46.2,32.2,30.24,NNE,26,5.0,9.0,58,0.00,,,0.01,VWS V14.01,2013-01-14 23:25:00,
2013-01-14 18:30:00,45.9,32.0,30.25,ENE,67,6.0,8.0,58,0.00,,,0.01,VWS V14.01,2013-01-14 23:30:00,
2013-01-14 18:35:00,45.9,31.5,30.25,NNE,26,5.0,8.0,57,0.00,,,0.01,VWS V14.01,2013-01-14 23:35:00,
2013-01-14 18:40:00,45.9,31.5,30.25,NNE,12,0.0,8.0,57,0.00,,,0.01,VWS V14.01,2013-01-14 23:40:00,
2013-01-14 18:45:00,45.7,31.4,30.27,NE,35,3.0,6.0,57,0.00,,,0.01,VWS V14.01,2013-01-14 23:45:00,
2013-01-14 18:50:00,45.6,31.3,30.27,ENE,64,0.0,9.0,57,0.00,,,0.01,VWS V14.01,2013-01-14 23:50:00,
2013-01-14 18:56:00,45.6,31.3,30.27,NNE,27,0.0,9.0,57,0.00,,,0.01,VWS V14.01,2013-01-14 23:56:00,
2013-01-14 19:01:00,45.4,31.1,30.29,NE,46,0.0,0.0,57,0.00,,,0.01,VWS V14.01,2013-01-15 00:01:00,
2013-01-14 19:06:00,45.4,31.1,30.29,NE,55,0.0,5.0,57,0.00,,,0.01,VWS V14.01,2013-01-15 00:06:00,
2013-01-14 19:11:00,45.4,31.1,30.29,WNW,291,2.0,5.0,57,0.00,,,0.01,VWS V14.01,2013-01-15 00:11:00,
2013-01-14 19:16:00,45.3,31.0,30.31,North,355,0.0,0.0,57,0.00,,,0.01,VWS V14.01,2013-01-15 00:16:00,
2013-01-14 19:21:00,45.3,31.0,30.31,NNE,12,0.0,0.0,57,0.00,,,0.01,VWS V14.01,2013-01-15 00:21:00,
2013-01-14 19:26:00,45.3,31.0,30.31,ENE,60,0.0,5.0,57,0.00,,,0.01,VWS V14.01,2013-01-15 00:26:00,
2013-01-14 19:31:00,45.1,30.8,30.31,NE,43,0.0,3.0,57,0.00,,,0.01,VWS V14.01,2013-01-15 00:31:00,
2013-01-14 19:35:00,45.1,30.8,30.31,NE,54,0.0,4.0,57,0.00,,,0.01,VWS V14.01,2013-01-15 00:35:00,
2013-01-14 19:40:00,45.0,30.7,30.31,NE,47,6.0,6.0,57,0.00,,,0.01,VWS V14.01,2013-01-15 00:40:00,
2013-01-14 19:45:00,45.0,31.1,30.31,ENE,64,0.0,1.0,58,0.00,,,0.01,VWS V14.01,2013-01-15 00:45:00,
2013-01-14 19:50:00,44.7,30.9,30.31,ENE,57,9.0,12.0,58,0.00,,,0.01,VWS V14.01,2013-01-15 00:50:00,
2013-01-14 19:55:00,44.4,31.0,30.31,NE,53,0.0,12.0,59,0.00,,,0.01,VWS V14.01,2013-01-15 00:55:00,
2013-01-14 20:00:00,44.4,31.4,30.31,NE,53,0.0,3.0,60,0.00,,,0.01,VWS V14.01,2013-01-15 01:00:00,
2013-01-14 20:05:00,44.1,31.1,30.31,ESE,107,0.0,6.0,60,0.00,,,0.01,VWS V14.01,2013-01-15 01:05:00,
2013-01-14 20:10:00,43.9,31.3,30.31,NE,52,7.0,10.0,61,0.01,,,0.02,VWS V14.01,2013-01-15 01:10:00,
2013-01-14 20:15:00,43.4,30.9,30.30,NE,46,0.0,0.0,61,0.01,,,0.02,VWS V14.01,2013-01-15 01:15:00,
2013-01-14 20:20:00,43.1,31.0,30.30,East,92,0.0,6.0,62,0.01,,,0.02,VWS V14.01,2013-01-15 01:20:00,
2013-01-14 20:25:00,42.9,29.2,30.30,ENE,59,7.0,11.0,58,0.01,,,0.02,VWS V14.01,2013-01-15 01:25:00,
2013-01-14 20:30:00,42.6,29.3,30.29,ENE,65,0.0,5.0,59,0.01,,,0.02,VWS V14.01,2013-01-15 01:30:00,
2013-01-14 20:35:00,42.3,29.4,30.29,North,11,0.0,5.0,60,0.01,,,0.02,VWS V14.01,2013-01-15 01:35:00,
2013-01-14 20:40:00,42.1,30.8,30.29,ENE,58,0.0,6.0,64,0.01,,,0.02,VWS V14.01,2013-01-15 01:40:00,
2013-01-14 20:45:00,41.7,30.8,30.31,SW,232,2.0,3.0,65,0.01,,,0.02,VWS V14.01,2013-01-15 01:45:00,
2013-01-14 20:50:00,41.4,30.9,30.31,SW,232,0.0,4.0,66,0.02,,,0.03,VWS V14.01,2013-01-15 01:50:00,
2013-01-14 20:55:00,41.3,31.5,30.31,SW,232,0.0,4.0,68,0.02,,,0.03,VWS V14.01,2013-01-15 01:55:00,
2013-01-14 21:00:00,41.3,32.3,30.32,SW,232,0.0,0.0,70,0.02,,,0.03,VWS V14.01,2013-01-15 02:00:00,
2013-01-14 21:05:00,41.1,32.8,30.32,SW,232,0.0,0.0,72,0.03,,,0.04,VWS V14.01,2013-01-15 02:05:00,
2013-01-14 21:10:00,41.0,33.4,30.32,SW,232,0.0,0.0,74,0.03,,,0.04,VWS V14.01,2013-01-15 02:10:00,
2013-01-14 21:15:00,40.7,33.4,30.33,SW,232,0.0,0.0,75,0.02,,,0.04,VWS V14.01,2013-01-15 02:15:00,
2013-01-14 21:20:00,40.6,33.3,30.33,SW,232,0.0,0.0,75,0.02,,,0.04,VWS V14.01,2013-01-15 02:20:00,
2013-01-14 21:25:00,40.4,33.1,30.33,SW,232,0.0,0.0,75,0.02,,,0.04,VWS V14.01,2013-01-15 02:25:00,
2013-01-14 21:30:00,40.3,33.3,30.33,NW,312,0.0,0.0,76,0.02,,,0.04,VWS V14.01,2013-01-15 02:30:00,
2013-01-14 21:35:00,40.1,33.2,30.33,North,350,0.0,1.0,76,0.02,,,0.04,VWS V14.01,2013-01-15 02:35:00,
2013-01-14 21:40:00,40.0,32.7,30.33,North,350,0.0,1.0,75,0.02,,,0.04,VWS V14.01,2013-01-15 02:40:00,
2013-01-14 21:45:00,39.7,32.4,30.32,North,350,0.0,0.0,75,0.03,,,0.05,VWS V14.01,2013-01-15 02:45:00,
2013-01-14 21:50:00,39.6,32.0,30.32,North,9,0.0,3.0,74,0.03,,,0.05,VWS V14.01,2013-01-15 02:50:00,
2013-01-14 21:55:00,39.6,32.3,30.32,ENE,59,2.0,5.0,75,0.03,,,0.05,VWS V14.01,2013-01-15 02:55:00,
2013-01-14 22:00:00,39.4,32.8,30.32,ENE,59,0.0,0.0,77,0.03,,,0.06,VWS V14.01,2013-01-15 03:00:00,
2013-01-14 22:05:00,39.3,32.7,30.32,ENE,59,0.0,0.0,77,0.03,,,0.06,VWS V14.01,2013-01-15 03:05:00,
2013-01-14 22:10:00,39.3,32.7,30.32,ENE,59,0.0,0.0,77,0.03,,,0.06,VWS V14.01,2013-01-15 03:10:00,
2013-01-14 22:15:00,39.3,33.0,30.32,ENE,59,0.0,0.0,78,0.02,,,0.06,VWS V14.01,2013-01-15 03:15:00,
2013-01-14 22:20:00,39.0,32.4,30.32,ENE,59,0.0,3.0,77,0.02,,,0.06,VWS V14.01,2013-01-15 03:20:00,
2013-01-14 22:25:00,38.8,31.9,30.32,ENE,59,0.0,3.0,76,0.02,,,0.06,VWS V14.01,2013-01-15 03:25:00,
2013-01-14 22:30:00,38.8,32.5,30.32,ENE,59,0.0,0.0,78,0.02,,,0.06,VWS V14.01,2013-01-15 03:30:00,
2013-01-14 22:35:00,38.7,32.4,30.32,ENE,59,0.0,0.0,78,0.02,,,0.06,VWS V14.01,2013-01-15 03:35:00,
2013-01-14 22:40:00,38.7,32.4,30.32,ENE,59,0.0,0.0,78,0.02,,,0.06,VWS V14.01,2013-01-15 03:40:00,
2013-01-14 22:45:00,38.7,32.1,30.34,ENE,59,0.0,1.0,77,0.02,,,0.06,VWS V14.01,2013-01-15 03:45:00,
2013-01-14 22:50:00,38.6,31.7,30.34,ENE,57,0.0,6.0,76,0.02,,,0.06,VWS V14.01,2013-01-15 03:50:00,
2013-01-14 22:55:00,38.6,31.7,30.34,NE,51,5.0,6.0,76,0.02,,,0.06,VWS V14.01,2013-01-15 03:55:00,
2013-01-14 23:00:00,38.4,30.9,30.34,NE,56,5.0,5.0,74,0.01,,,0.06,VWS V14.01,2013-01-15 04:00:00,
2013-01-14 23:05:00,38.4,30.5,30.34,NE,54,0.0,7.0,73,0.01,,,0.06,VWS V14.01,2013-01-15 04:05:00,
2013-01-14 23:10:00,38.4,30.5,30.34,NE,40,2.0,7.0,73,0.01,,,0.06,VWS V14.01,2013-01-15 04:10:00,
2013-01-14 23:15:00,38.3,30.1,30.35,NE,48,2.0,2.0,72,0.00,,,0.06,VWS V14.01,2013-01-15 04:15:00,
2013-01-14 23:20:00,38.3,29.4,30.35,ENE,74,4.0,9.0,70,0.01,,,0.07,VWS V14.01,2013-01-15 04:20:00,
2013-01-14 23:25:00,38.1,29.5,30.35,NE,47,2.0,9.0,71,0.01,,,0.07,VWS V14.01,2013-01-15 04:25:00,
2013-01-14 23:30:00,38.1,29.5,30.34,NE,55,0.0,0.0,71,0.01,,,0.07,VWS V14.01,2013-01-15 04:30:00,
2013-01-14 23:35:00,38.0,29.8,30.34,NE,49,2.0,6.0,72,0.01,,,0.07,VWS V14.01,2013-01-15 04:35:00,
2013-01-14 23:40:00,37.8,29.6,30.34,NE,49,2.0,7.0,72,0.01,,,0.07,VWS V14.01,2013-01-15 04:40:00,
2013-01-14 23:45:00,37.4,30.5,30.34,ENE,64,7.0,7.0,76,0.01,,,0.07,VWS V14.01,2013-01-15 04:45:00,
2013-01-14 23:50:00,36.8,30.9,30.34,NE,51,0.0,10.0,79,0.01,,,0.07,VWS V14.01,2013-01-15 04:50:00,
2013-01-14 23:55:00,36.4,31.1,30.34,NE,36,2.0,10.0,81,0.01,,,0.07,VWS V14.01,2013-01-15 04:55:00,